#timestamp,LO_Frequency,Hit,StdDev 
1555063215.1,286046997.1,N
1555063216.0,286046997.1,N
1555063235.8,286046996.5,N
1555063255.6,286046998.9,N
1555063275.5,286046998.7,N
1555063295.3,286047001.0,N
1555063315.2,286046998.8,N
1555063335.9,286047000.4,N
1555063355.7,286046999.4,N
1555063375.6,286046998.4,N
1555063395.4,286046998.6,N
1555063415.3,286046998.3,N
1555063435.1,286046998.3,N
1555063436.0,286046998.3,N
1555063455.8,286046999.4,N
1555063475.7,286046998.3,N
1555063495.5,286047001.1,N
1555063515.3,286047000.8,N
1555063535.2,286047000.6,N
1555063555.0,286047000.2,N
1555063555.9,286047000.2,N
1555063575.8,286047001.0,N
1555063595.6,286047001.1,N
1555063615.4,286046999.8,N
1555063635.3,286047000.5,N
1555063655.1,286047000.1,N
1555063675.9,286046998.6,N
1555063695.1,286046998.4,N
1555063696.0,286046998.4,N
1555063715.8,286046998.8,N
1555063735.7,286046999.4,N
1555063755.5,286047000.8,N
1555063775.3,286046999.9,N
1555063795.2,286047000.7,N
1555063815.9,286047000.4,N
1555063835.7,286047001.2,N
1555063855.6,286047000.7,N
1555063875.4,286047000.3,N
1555063895.3,286047000.1,N
1555063915.1,286047000.2,N
1555063965.9,286047002.0,E
1555063975.8,286047000.4,N
1555063995.6,286046998.5,P
1555064015.5,286046999.4,N
1555064035.3,286046998.8,N
1555064055.2,286046997.6,Y
1555064075.9,286046997.8,P
1555064095.7,286046997.1,P
1555064115.6,286046997.5,N
1555064135.4,286046997.9,N
1555064155.2,286046998.8,N
1555064175.1,286047000.5,N
1555064176.0,286047000.5,N
1555064195.8,286047000.0,N
1555064215.7,286047002.7,N
1555064235.5,286047002.6,N
1555064255.3,286047001.7,N
1555064275.2,286046999.9,N
1555064295.0,286046999.9,N
1555064295.9,286046999.9,N
1555064315.8,286047000.5,N
1555064335.6,286047000.3,N
1555064355.4,286047000.8,N
1555064375.3,286046998.3,N
1555064395.1,286046999.7,N
1555064415.8,286047001.8,N
1555064435.7,286047002.8,N
1555064455.6,286047001.0,N
1555064475.4,286047000.4,N
1555064495.3,286047000.4,N
1555064515.1,286047001.0,N
1555064535.9,286046998.1,N
1555064555.7,286047002.7,N
1555064575.5,286047002.6,N
1555064595.4,286047004.3,N
1555064615.2,286047004.2,N
1555064635.0,286047004.1,N
1555064635.9,286047004.1,N
1555064655.8,286047004.3,N
1555064675.6,286047003.8,N
1555064695.5,286047004.1,N
1555064715.3,286047003.7,N
1555064735.1,286047003.6,N
1555064755.9,286047001.7,N
1555064775.7,286047004.1,N
1555064795.5,286047001.3,N
1555064815.4,286047003.7,N
1555064835.2,286047004.4,N
1555064855.0,286047004.0,N
1555064856.0,286047004.0,N
1555064875.8,286046999.9,N
1555064895.6,286047000.9,N
1555064915.5,286047000.0,N
1555064935.3,286047002.7,N
1555064955.1,286047001.4,N
1555064975.9,286047001.7,N
1555064995.7,286047001.7,N
1555065015.6,286047001.5,N
1555065035.4,286047004.1,N
1555065055.2,286047002.5,N
1555065075.1,286047001.8,N
1555065076.0,286047001.8,N
1555065095.8,286047001.9,N
1555065115.6,286047001.3,N
1555065135.5,286047001.4,N
1555065155.3,286047002.3,N
1555065175.2,286047001.8,N
1555065195.9,286047001.4,N
1555065215.7,286047001.9,N
1555065235.6,286047000.2,N
1555065255.4,286047001.8,N
1555065275.2,286047001.6,N
1555065295.1,286047003.6,N
1555065296.0,286047003.6,N
1555065315.8,286047004.1,Y
1555065335.4,286046999.8,P
1555065355.2,286047000.1,N
1555065375.1,286046999.8,N
1555065376.0,286046999.8,N
1555065395.8,286047000.8,N
1555065415.6,286046998.3,N
1555065435.5,286047000.8,N
1555065455.3,286046999.7,N
1555065475.2,286046998.1,N
1555065495.9,286047000.3,N
1555065515.7,286047000.2,N
1555065535.6,286046999.9,N
1555065555.0,286047002.4,N
1555065555.9,286047002.4,N
1555065575.8,286047002.5,N
1555065595.6,286047002.6,N
1555065615.5,286047000.2,N
1555065635.3,286047002.4,N
1555065655.1,286047001.9,N
1555065675.9,286047002.4,N
1555065695.7,286046999.8,N
1555065715.5,286046999.8,N
1555065735.4,286047001.1,N
1555065755.2,286047001.2,N
1555065775.1,286047001.0,N
1555065776.0,286047001.0,N
1555065795.8,286047000.9,N
1555065815.6,286046998.7,N
1555065835.5,286046998.3,N
1555065855.3,286047000.5,N
1555065875.2,286047000.9,N
1555065895.9,286046998.6,N
1555065915.7,286046999.4,N
1555065935.6,286047000.2,N
1555065955.4,286047000.7,N
1555065975.2,286047000.0,N
1555065995.1,286047000.0,N
1555065996.0,286047000.0,N
1555066015.8,286046998.2,N
1555066035.7,286047000.3,N
1555066055.5,286047000.4,N
1555066075.3,286047000.4,N
1555066095.2,286047000.4,N
1555066115.0,286047000.4,N
1555066115.9,286047000.4,N
1555066135.8,286047001.0,N
1555066155.6,286046998.2,N
1555066175.4,286047000.0,N
1555066195.3,286047000.2,N
1555066215.1,286047000.8,N
1555066235.8,286047000.4,N
1555066255.7,286046998.5,N
1555066275.5,286046998.2,N
1555066295.6,286046999.4,N
1555066315.4,286046999.6,N
1555066335.3,286046999.1,N
1555066355.1,286046999.0,N
1555066356.0,286046999.0,N
1555066375.8,286046998.1,N
1555066395.7,286047002.4,N
1555066415.5,286047001.9,N
1555066435.3,286047000.6,N
1555066455.2,286046999.7,N
1555066475.0,286046999.7,N
1555066475.9,286046999.7,N
1555066495.8,286047000.3,N
1555066515.6,286047002.6,N
1555066535.4,286047001.5,N
1555066555.3,286047002.0,N
1555066575.1,286047001.3,N
1555066595.8,286047002.0,N
1555066615.7,286047002.4,N
1555066635.7,286047002.2,N
1555066655.7,286047001.5,N
1555066675.5,286047002.7,N
1555066695.4,286047002.3,N
1555066715.2,286047001.9,N
1555066735.1,286047001.5,N
1555066736.0,286047001.5,N
1555066755.8,286047002.6,N
1555066775.6,286047002.7,N
1555066795.5,286047001.0,N
